Weather History for PHLI - March, 2013

Change the Weather History Date:

Sunday, March 3, 2013

  Actual Average Record
Temperature  
Mean Temperature 72 °F 72 °F  
Max Temperature 75 °F 78 °F 84 °F (1986)
Min Temperature 69 °F 66 °F 58 °F (1950)
Degree Days  
Heating Degree Days 0 0  
Month to date heating degree days 0 0  
Since 1 July heating degree days 0 0  
Cooling Degree Days 7 7  
Month to date cooling degree days 22 21  
Year to date cooling degree days 409 416  
Growing Degree Days 22 (Base 50)    
Moisture  
Dew Point 57 °F    
Average Humidity 63    
Maximum Humidity 73    
Minimum Humidity 53    
Precipitation  
Precipitation T in 0.14 in 2.80 in (2011)
Month to date precipitation 0.01 0.43  
Year to date precipitation 6.89 7.34  
Snow  
Snow 0.00 in - - ()
Month to date snowfall 0.0  
Since 1 July snowfall 0.0  
Snow Depth 0.00 in    
Sea Level Pressure  
Sea Level Pressure 30.19 in    
Wind  
Wind Speed 18 mph (ENE)    
Max Wind Speed 24 mph    
Max Gust Speed 30 mph    
Visibility 10 miles    
Events      
T = Trace of Precipitation, MM = Missing Value Source: NWS Daily Summary

Daily Weather History Graph

Daily Weather History Graph

Search for Another Location

Airport or City:

Trip Planner

Search our weather history database for the weather conditions in past years. The results will help you decide how hot, cold, wet, or windy it might be!

Date:

Astronomy

Mar. 03, 2013 Rise Set
Actual Time 6:56 AM HST 6:42 PM HST
Civil Twilight 6:33 AM HST 7:04 PM HST
Nautical Twilight 6:07 AM HST 7:30 PM HST
Astronomical Twilight 5:42 AM HST 7:56 PM HST
Moon No Moon Rise 11:09 AM HST (3/3)
Length of Visible Light 12h 30m
Length of Day
11h 46m
Waning Gibbous, 61% of the Moon is Illuminated
Mar 3
Waning Gibbous
Mar 4
Last Quarter
Mar 11
New
Mar 19
First Quarter
Mar 26
Full

Hourly Weather History & Observations

Time (HST) Temp. Dew Point Humidity Pressure Visibility Wind Dir Wind Speed Gust Speed Precip Events Conditions
12:53 AM 70.0 °F 57.0 °F 63% 30.22 in 10.0 mi ENE 17.3 mph - N/A   Partly Cloudy
1:53 AM 70.0 °F 55.0 °F 59% 30.19 in 10.0 mi ENE 20.7 mph - N/A   Mostly Cloudy
2:53 AM 70.0 °F 57.9 °F 65% 30.17 in 10.0 mi ENE 17.3 mph - N/A   Overcast
3:53 AM 70.0 °F 51.1 °F 51% 30.16 in 10.0 mi NE 12.7 mph 23.0 mph N/A   Mostly Cloudy
4:53 AM 70.0 °F 55.0 °F 59% 30.15 in 10.0 mi ENE 20.7 mph 28.8 mph N/A   Mostly Cloudy
5:53 AM 70.0 °F 57.9 °F 65% 30.16 in 10.0 mi ENE 23.0 mph 28.8 mph N/A   Overcast
6:53 AM 70.0 °F 55.0 °F 59% 30.18 in 10.0 mi East 20.7 mph 28.8 mph N/A   Overcast
7:53 AM 70.0 °F 53.1 °F 55% 30.20 in 10.0 mi ENE 21.9 mph 27.6 mph N/A   Overcast
8:53 AM 71.1 °F 54.0 °F 55% 30.22 in 10.0 mi ENE 21.9 mph - N/A   Overcast
9:53 AM 71.1 °F 54.0 °F 55% 30.22 in 10.0 mi ENE 17.3 mph 25.3 mph N/A   Overcast
10:53 AM 72.0 °F 55.9 °F 57% 30.22 in 10.0 mi East 20.7 mph - N/A   Overcast
11:53 AM 73.0 °F 55.0 °F 53% 30.22 in 10.0 mi ENE 18.4 mph - N/A   Overcast
12:53 PM 73.0 °F 55.0 °F 53% 30.19 in 10.0 mi ENE 18.4 mph - N/A   Overcast
1:53 PM 73.9 °F 57.9 °F 57% 30.17 in 10.0 mi NE 13.8 mph - N/A   Overcast
2:53 PM 73.0 °F 57.9 °F 59% 30.17 in 10.0 mi ENE 12.7 mph - N/A   Overcast
3:53 PM 73.0 °F 59.0 °F 61% 30.16 in 10.0 mi ENE 10.4 mph - 0.00 in   Overcast
4:53 PM 71.1 °F 61.0 °F 70% 30.16 in 10.0 mi ENE 20.7 mph 28.8 mph N/A   Overcast
5:53 PM 70.0 °F 61.0 °F 73% 30.17 in 10.0 mi NE 12.7 mph - 0.00 in   Scattered Clouds
6:53 PM 69.1 °F 61.0 °F 75% 30.18 in 10.0 mi ENE 15.0 mph - 0.00 in   Mostly Cloudy
7:53 PM 69.1 °F 61.0 °F 75% 30.19 in 10.0 mi ENE 17.3 mph - N/A   Mostly Cloudy
8:53 PM 70.0 °F 59.0 °F 68% 30.20 in 10.0 mi NE 16.1 mph - N/A   Scattered Clouds
9:53 PM 70.0 °F 57.9 °F 65% 30.21 in 10.0 mi ENE 17.3 mph - N/A   Overcast
10:53 PM 70.0 °F 55.9 °F 61% 30.21 in 10.0 mi NE 18.4 mph - N/A   Mostly Cloudy
11:53 PM 69.1 °F 55.0 °F 61% 30.21 in 10.0 mi ENE 16.1 mph 25.3 mph N/A   Scattered Clouds